Location: Maslives
(47.6335°N, 1.4792°E)
Time: 22:20:46
(UTC+00:00)

Cosmos 2263 Rocket - Pass Details

Date: 08 August 2025
Orbit: 823 x 847 km, 71.0° (Epoch: 10 April)

Event Time Altitude Azimuth Distance (km) Brightness Sun altitude
Rises 19:46:21 0° 332° (NNW) 3,391 6.5 -5.1°
Reaches altitude 10° 19:48:48 10° 333° (NNW) 2,449 5.7 -5.4°
Maximum altitude 19:54:26 90° 31° (NNE) 835 2.2 -6.3°
Drops below altitude 10° 19:59:59 10° 155° (SSE) 2,419 4.1 -7.0°
Enters shadow 20:01:25 - 155° (SSE) 2,966 4.5 -7.2°
